COSMOS 1275 DEB, 42100

Orbit data source: Space-Track

COSMOS 1275 DEB, 42100 is space debris in LEO originally from a launch on Thu, 04 Jun 1981 UTC launched from the Plesetsk Missile And Space Complex (PKMTR). Debris objects in space refer to the collection of defunct objects orbiting the Earth. Examples of debris include non-operational satellites, rocket bodies, and fragments generated from explosions, collisions, or faulty payload assembly.

Loading next visibility...
Identifier
42100, 1981-053PL
Orbit
LEO
Country
Flag of CISCIS
Related business
Manufacturer
Unknown
Mission
Spacecraft
Bus & Motor
Unknown
Mass
Unknown
Launch date (UTC)
1981-06-04 (44 years ago)
Launch vehicle
Unknown
Launch site
Plesetsk Missile And Space Complex (PKMTR)
Object type
Payload
Rocket body
Debris
Shape & HBR
Unknown shape, 0.1 m
Radar Cross Section
Small (<0.1 m²)

Expand to show TLE details & history
Last TLE update: 5 days ago

TLE from 5 days ago
0 COSMOS 1275 DEB
1 42100U 81053PL  25300.06603431  .00008249  00000-0  26315-2 0  9999
2 42100  82.8591  68.2955 0020500 130.1859 230.1132 14.39534320619249
Epoch: 2025-10-27T01:35Z
TLE epoch observation values (Epoch: 2025-10-27T01:35:05.364Z)
Latitude
0.00002°
Longitude
8.84993°
Altitude
772.428 km
Speed
7.463 km/s
True Right ascension
04h 33m 10s
True Declination
0° 00' 00"
Sunlit
Object was in full shadow at epoch
Visualization orbit readout
Latitude
Unknown
Longitude
Unknown
Altitude
Unknown
Speed
Unknown
Apparent Right ascension
Unknown
Apparent Declination
Unknown
Sunlit
N/A
Visualization observer readout
Local Sidereal Time
20:30:50
Azimuth
Unknown
Elevation
Unknown
Doppler factor
Unknown
Orbital elements
Apogee altitude
771.728 km
Perigee altitude
742.474 km
Semi-major axis
7,135.238 km
Eccentricity
0.00205
Inclination
82.8591°
RAAN
68.2955°
Arg. of periapsis
130.1859°
True anomaly
229.93324°
Mean anomaly
230.1132°
Eccentric anomaly
230.02319°
Mean motion
3.60106 °/min
Orbital period
99.97 mins
BSTAR
0.0026315
Loading maneuver chart data...
Computing Atmospheric mass density...
Loading historical data...
Loading historical data...
Loading historical data...
Loading historical data...
Loading historical data...
Loading historical data...
Loading historical data...

Documentation

Showing up to 5 results
|